Location: North Evanston
(42.0634°N, 87.6976°W)
Time: 20:45:20
(UTC+00:00)

Vanguard 2 Rocket - Pass Details

Date: 12 May 2026
Orbit: 553 x 3286 km, 32.9° (Epoch: 6 June)

Event Time Altitude Azimuth Distance (km) Brightness Sun altitude
Rises 14:13:32 0° 179° (S) 4,966 10.8 39.0°
Reaches altitude 10° 14:18:43 10° 157° (SSE) 4,528 11.0 40.0°
Maximum altitude 14:25:03 15° 128° (SE) 4,701 11.6 41.1°
Drops below altitude 10° 14:32:40 10° 100° (E) 5,669 12.1 42.5°
Sets 14:40:47 0° 82° (E) 7,084 12.1 44.0°
